Regional Weather Roundup
Issued by NWS Jackson, KY

Home | Current Version | Previous Version | Graphics & Text | Print | Product List | Glossary On
Versions: 1 2 3 4 5 6 7 8 9 10 11 12 13 14 15 16 17 18 19 20 21 22 23 24 25 26 27
000
ASUS43 KJKL 240310
RWRJKL

EAST KENTUCKY HOURLY WEATHER ROUNDUP
NATIONAL WEATHER SERVICE JACKSON KY
1000 PM EST FRI FEB 23 2018

NOTE: "FAIR" INDICATES FEW OR NO CLOUDS BELOW 12,000 FEET WITH
NO SIGNIFICANT WEATHER AND/OR OBSTRUCTIONS TO VISIBILITY.

* THESE REPORTS ARE NOT UNDER NWS QUALITY CONTROL AND MAY NOT
  REPORT WEATHER SUCH AS PRECIPITATION AND FOG.

KYZ079-080-083-085-087-088-110-112-115-119-120-240400
...EASTERN KENTUCKY...

CITY           SKY/WX    TMP DP  RH WIND       PRES   REMARKS
JACKSON          N/A     68  56  65 SW5       30.21F
LONDON         MOCLDY    65  57  75 CALM      30.21F
SOMERSET*        N/A     63  54  72 CALM      30.21F
MONTICELLO*      N/A     59  55  87 N8        30.22F
WILLIAMSBURG*    N/A     63  63 100 CALM      30.22S
MIDDLESBORO*     N/A     58  55  87 CALM      30.24S
HARLAN APT*      N/A     61  54  77 CALM      30.25R
PIKE CO APT*   CLOUDY    66  58  73 SE3       30.22F
BIG SANDY APT* MOCLDY    64  57  77 CALM      30.21F
MOREHEAD APT*  MOCLDY    64  59  82 CALM      30.23S
ASHLAND*         N/A     56  56 100 CALM      30.20S
$$

KYZ035-036-041-042-044-050-067-078-099-240400
...CENTRAL KENTUCKY...

CITY           SKY/WX    TMP DP  RH WIND       PRES   REMARKS
MT STERLING*     N/A     59  59 100 CALM      30.23S
FLEMING/MASON*   N/A     59  59 100 CALM      30.22F
DANVILLE*        N/A     59  55  88 CALM      30.21F
LEXINGTON      LGT RAIN  60  58  92 N9        30.21F
FRANKFORT      HVY RAIN  60  56  86 CALM      30.20F FOG
LOUISVILLE     MOCLDY    58  56  93 CALM      30.22S
LEBANON*       CLOUDY    59  59 100 N5        30.21S FOG
GLASGOW*       CLOUDY   N/A N/A N/A N6        30.21R
BOWLING GREEN  CLOUDY    59  58  96 CALM      30.21S
$$

KYZ091>093-OHZ055-061-077-WVZ005-015-034-035-042-240400
...SOUTHERN OHIO/WEST VIRGINIA...

CITY           SKY/WX    TMP DP  RH WIND       PRES   REMARKS
COVINGTON      CLOUDY    54  53  97 CALM      30.21R
COLUMBUS       CLOUDY    56  53  90 W8        30.19F
DAYTON         CLOUDY    50  48  93 N8        30.22S
WILMINGTON       N/A     55  54  96 W8        30.20S
HUNTINGTON       N/A     63  56  78 N3        30.19F
CHARLESTON     MOCLDY    59  59 100 CALM      30.20F
BECKLEY          N/A     58  51  78 S6        30.26F
BLUEFIELD      MOCLDY    62  48  60 SE5       30.29F
LOGAN CO APT*  CLOUDY    66  55  68 CALM      30.22F
$$

VAZ002-007-008-TNZ017-027-036-066-071-240400
...SOUTHWEST VIRGINIA/EAST TENNESSEE...

CITY           SKY/WX    TMP DP  RH WIND       PRES   REMARKS
WISE*            N/A     61  52  72 CALM      30.29S
JONESVILLE*      N/A     57  54  88 CALM      30.26S
ABINGDON*      CLOUDY    64  54  68 CALM      30.27F
BRISTOL          N/A     67  56  67 CALM      30.25S
SEVIERVILLE*   PTCLDY    63  52  67 CALM      30.23S
KNOXVILLE      MOCLDY    67  54  63 SW6       30.23R
LAFOLLETTE*    CLOUDY    61  55  82 CALM      30.26S
OAK RIDGE      MOCLDY    70  57  63 S3        30.24R
CROSSVILLE       N/A     66  56  70 S7        30.25F
NASHVILLE      CLOUDY    70  54  56 CALM      30.19R
$$

...KEY TO REMARKS...
VSB - VISIBILITY IN MILES
WCI - WIND CHILL INDEX
HX  - HEAT INDEX

$$




USA.gov is the U.S. government's official web portal to all federal, state and local government web resources and services.